Location: Unspecified
(34.4950°S, 58.5160°W)
Time: 08:28:50
(UTC+00:00)

ACS3 Solar Sail - Pass Details

Date: 22 February 2026
Orbit: 882 x 976 km, 97.2° (Epoch: 14 March)

Event Time Altitude Azimuth Distance (km) Brightness Sun altitude
Exits shadow 04:48:23 21° 170° (S) 2,019 3.9 -44.3°
Drops below altitude 10° 04:50:22 10° 179° (S) 2,711 4.7 -44.2°
Sets 04:52:57 0° 184° (S) 3,677 5.5 -44.0°
